Location: Brede
(50.9167°N, 0.6000°E)
Time: 01:56:32
(UTC+00:00)

Cosmos 1726 - Pass Details

Date: 08 August 2020
Orbit: 482 x 499 km, 82.5° (Epoch: 19 September)

Event Time Altitude Azimuth Distance (km) Brightness Sun altitude
Exits shadow 03:16:33 10° 189° (S) 1,669 4.3 -10.9°
Maximum altitude 03:20:12 90° 273° (W) 498 2.1 -10.5°
Drops below altitude 10° 03:23:54 10° 10° (N) 1,689 5.6 -10.0°
Sets 03:26:01 0° 11° (N) 2,572 6.7 -9.8°
